Location: Lombard
(41.8800°N, 88.0080°W)
Time: 18:01:58
(UTC-06:00)

Vanguard 3 - Pass Details

Date: 10 December 2023
Orbit: 508 x 3239 km, 33.4° (Epoch: 23 February)

Event Time Altitude Azimuth Distance (km) Brightness Sun altitude
Rises 19:15:14 0° 231° (SW) 7,157 12.7 -31.6°
Reaches altitude 10° 19:20:37 10° 226° (SW) 5,998 12.1 -32.6°
Maximum altitude 19:36:52 44° 162° (SSE) 3,040 9.8 -35.6°
Enters shadow 19:38:29 43° 147° (SSE) 2,965 9.6 -35.9°
